Погода в точке

    39°02′52″N   77°28′22″W   America/New_York
темп.,
°C
ветер,
м/с
пор.,
м/с
влажн.,
%
обл.,
%
осадки,
мм/ч
давл.,
гПа
погр.,
м
17 сентября, пт
пт1723:00+21св2496100 0.0 1021145
02:00+20ссв2499100 0.0 1021172
05:00+19с259997 0.0 1021145
08:00+20ссв359760 0.0 1022214
11:00+22ссв348699 0.0 1023530
14:00+26ссв226842 0.3 1021992
17:00+25ссв33828 2.4 1019520
20:00+21с239516 4.0 102061
18 сентября, сб
сб1823:00+20ссв229736 0.0 102046
02:00+19с11972 0.0 101924
05:00+19сз11974 0.0 101923
08:00+20сз11940 0.0 102070
11:00+25сз237225 0.0 1020745
14:00+29ссз22555 0.0 10181297
17:00+29с345325 0.0 10161383
20:00+24всв117794 0.1 101811
19 сентября, вс
вс1923:00+22зюз22835 0.0 101915
02:00+21сз22836 0.0 101938
05:00+19ссз26870 0.0 1020133
08:00+19с25860 0.0 1022165
11:00+25ссв34591 0.0 1023738
14:00+28ссв32515 0.0 10211285
17:00+27ссв32527 0.0 1020910
20:00+21всв35721 0.0 102199
20 сентября, пн
пн2023:00+20в1165100 0.0 102322
02:00+18в1172100 0.0 102416
05:00+17юв129187 0.0 102448
08:00+19юв138888 0.0 1024155
11:00+24юв3458100 0.0 1025867
14:00+25ююв3452100 0.0 10241160
17:00+26юв4549100 0.0 10231389
20:00+22юв4963100 0.0 1024402
21 сентября, вт
вт2123:00+20юв41076100 0.0 1025461
02:00+18ююв258997 0.0 1025193
05:00+17ююв239494 0.0 102497
08:00+18юв2690100 0.0 1025245
11:00+23ююв467094 0.0 10241035
14:00+25ююв4560100 0.1 10231477
17:00+25ююв3562100 0.0 1021827
20:00+20юв2387100 0.7 102193